Погода в Одессе

США     31°51′38″N   102°26′26″W
темп.,
°C
ветер,
м/с
пор.,
м/с
влажн.,
%
обл.,
%
осадки,
мм/ч
давл.,
гПа
погр.,
м
25 октября, пн
пн2501:00+22ююз33260 0.0 101111
04:00+19зюз33310 0.0 101311
07:00+18зюз22370 0.0 101311
10:00+23ююз23280 0.0 1014151
13:00+29ю55190 0.0 1012838
16:00+31ю45150 0.0 10101235
19:00+25юв12220 0.0 100911
22:00+23ююв512330 0.0 1011155
26 октября, вт
вт2601:00+23ююв918520 0.0 1010455
04:00+22ю816580 0.0 1008347
07:00+20ююв916690 0.0 1008300
10:00+22ю1015670 0.0 1008478
13:00+30юз710280 0.0 10051763
16:00+32з913120 0.0 10023088
19:00+26зсз1015210 0.0 1002397
22:00+23з1219230 0.0 1004791
27 октября, ср
ср2701:00+20зсз1116250 0.0 1006711
04:00+16зсз814230 0.0 1008370
07:00+15зсз1217240 0.0 1010901
10:00+15ссз1013310 0.0 10141085
13:00+19зсз79220 0.0 10132210
16:00+21сз810150 0.0 10112501
19:00+18сз57160 0.0 101173
22:00+15з34170 0.0 101314
28 октября, чт
чт2801:00+14зсз56170 0.0 101349
04:00+12ссз612250 0.0 1015157
07:00+10ссв69260 0.0 1017104
10:00+14св69210 0.0 1019297
13:00+20св65180 0.0 10181391
16:00+21ссв33170 0.0 10161717
19:00+17ссв23250 0.0 101611
22:00+14юв11300 0.0 101711
29 октября, пт
пт2901:00+13ююв11310 0.0 101811
04:00+13св33300 0.0 101910
07:00+11св44340 0.0 102024
10:00+15всв45300 0.0 1022200
13:00+20вюв22210 0.0 1020855
16:00+23ююв32180 0.0 10161315
19:00+18ю33250 0.0 101511
22:00+16ююв44270 0.0 101520